Flag for Iran Weather past 2 weeks in Esfahãn, Iran

55 °F


Feels Like: 54 °F
Forecast: 50 / 84 °F
Wind: 7 mph from South

Location: Esfahan

Current Time: Oct 7, 2015 at 7:59:29 AM

Latest Report: Oct 7, 2015 at 7:30 AM

Visibility: 2 mi

Pressure: 30.09 "Hg (24.93 "Hg at 1576m altitude)

Humidity: 36%

Dew point: 28 °F

Location of EsfahãnLocation

Historic Weather in Esfahãn — Graph


Esfahãn temperature yesterday

Maximum temperature yesterday: 88 °F (at 2:00 PM)
Minimum temperature yesterday: 54 °F (at 5:30 AM)
Average temperature yesterday: 72 °F

Past Weeks' High & Low Weather Summary

High90 °F (Sep 24, 2:30 PM)55% (Oct 2, 5:30 AM)30.42 "Hg (Oct 2, 5:30 AM)
Low43 °F (Sep 22, 6:30 AM)6% (Sep 22, 3:00 PM)30.01 "Hg (Sep 26, 2:30 PM)
Average70 °F21%30.17 "Hg
* Reported Sep 22 6:30 AM — Oct 7 7:00 AM, Esfahãn, Weather by CustomWeather, © 2015

Note: Actual official high and low records may vary slightly from our data, if they occured in-between our weather recording intervals... More about our weather records


Esfahãn weather history for previous 24 hours

Time TempWeatherWind HumidityBarometerVisibility
7:00 AM
Wed, Oct 7
54 °FHaze.5 mph35%30.07 "Hg2 mi
6:30 AM54 °FHaze.9 mph41%30.07 "Hg3 mi
6:00 AM52 °FClear.9 mph35%30.07 "Hg4 mi
5:30 AM57 °FClear.5 mph31%30.07 "Hg10 mi
5:00 AM57 °FClear.7 mph31%30.07 "Hg10 mi
4:30 AM55 °FClear.9 mph33%30.07 "Hg10 mi
4:00 AM54 °FClear.7 mph35%30.07 "Hg10 mi
3:30 AM54 °FClear.7 mph30%30.07 "Hg10 mi
3:00 AM55 °FClear.5 mph28%30.07 "Hg5 mi
2:30 AM59 °FClear.7 mph31%30.07 "Hg4 mi
2:00 AM61 °FClear.7 mph29%30.07 "Hg10 mi
1:30 AM61 °FClear.7 mph29%30.07 "Hg10 mi
1:00 AM64 °FClear.7 mph28%30.07 "Hg10 mi
12:30 AM72 °FClear.9 mph22%30.07 "Hg10 mi
12:00 AM70 °FClear.7 mph23%30.04 "Hg10 mi
11:30 PM
Tue, Oct 6
68 °FClear.7 mph23%30.07 "Hg10 mi
11:00 PM64 °FClear.9 mph22%30.04 "Hg10 mi
10:30 PM63 °FClear.7 mph19%30.04 "Hg10 mi
10:00 PM70 °FClear.7 mph17%30.04 "Hg4 mi
9:30 PM72 °FClear.7 mph14%30.07 "Hg10 mi
9:00 PM70 °FClear.5 mph15%30.07 "Hg10 mi
8:30 PM72 °FClear.2 mph14%30.07 "Hg10 mi
8:00 PM72 °FPassing clouds.2 mph13%30.04 "HgN/A
7:30 PM73 °FPassing clouds.2 mph13%30.04 "HgN/A
7:00 PM73 °FPassing clouds.7 mph13%30.04 "HgN/A
6:30 PM75 °FPassing clouds.7 mph12%30.04 "HgN/A
6:00 PM77 °FPartly sunny.7 mph11%30.04 "HgN/A
5:30 PM81 °FPartly sunny.7 mph10%30.04 "HgN/A
5:00 PM82 °FPartly sunny.5 mph9%30.04 "HgN/A
4:30 PM84 °FScattered clouds.5 mph9%30.04 "HgN/A
4:00 PM86 °FScattered clouds.5 mph8%30.04 "HgN/A
3:30 PM86 °FPassing clouds.12 mph8%30.04 "HgN/A
3:00 PM86 °FPassing clouds.12 mph8%30.04 "HgN/A
2:30 PM86 °FPassing clouds.14 mph8%30.04 "HgN/A
2:00 PM88 °FPassing clouds.7 mph9%30.07 "HgN/A
1:30 PM86 °FPassing clouds.7 mph10%30.07 "HgN/A
1:00 PM86 °FPassing clouds.No wind10%30.09 "HgN/A
12:30 PM84 °FPassing clouds.5 mph10%30.09 "HgN/A
12:00 PM86 °FPassing clouds.No wind11%30.09 "HgN/A
11:30 AM84 °FPassing clouds.7 mph11%30.12 "HgN/A
11:00 AM82 °FSunny.5 mph13%30.15 "Hg10 mi
10:30 AM81 °FSunny.5 mph14%30.15 "Hg10 mi
10:00 AM79 °FClear.9 mph13%30.15 "Hg5 mi
9:30 AM77 °FClear.12 mph15%30.15 "Hg4 mi
9:00 AM73 °FClear.14 mph16%30.15 "Hg4 mi
8:30 AM70 °FClear.9 mph20%30.15 "Hg4 mi
8:00 AM66 °FClear.7 mph22%30.15 "Hg4 mi
7:30 AM63 °FClear.7 mph24%30.15 "Hg4 mi
7:00 AM57 °FClear.7 mph29%30.12 "Hg4 mi
Weather by CustomWeather, © 2015

See weather overviewHow to use our weather pages